[[{"header":{"parameterUnit":"m.s-1","parameterCategory":1,"la1":30.2991,"la2":30.254,"lo1":-89.0895,"lo2":-89.0444,"dy":0.0017,"dx":0.0017,"nx":28,"ny":28,"refTime":"2023-04-03T21:00:00:Z","depth":0,"parameterNumber":2,"parameterNumberName":"U-component_of_WINDS"},"data":[0,0,0,0,0,0,0,0,0,0,0,0,0,0,0,0,0,0,0,0,0,0,0,0,0,0,0,0,0,0,0,0,0,0,0,0,0,0,0,0,0,0,0,0,0,0,0,0,0,0,0,0,0,0,0,0,0,0,-3.1802,-3.1802,0,-3.1828,-3.1829,-3.1829,-3.1815,-3.1814,-3.1813,-3.1813,-3.1839,-3.1841,-3.1842,0,0,0,0,0,0,0,0,0,0,0,0,0,-3.1739,-3.174,-3.1802,-3.1802,-3.1803,-3.1828,-3.1829,-3.1829,-3.1815,-3.1814,-3.1813,-3.1812,-3.1839,-3.1841,-3.1842,0,0,0,0,0,0,0,0,0,0,0,0,0,-3.1766,-3.1741,-3.1802,-3.1799,-3.1799,-3.1828,-3.1829,-3.1829,-3.1815,-3.1814,-3.1813,-3.1812,-3.1838,-3.184,-3.1842,-3.1877,0,0,-3.1849,-3.185,0,0,0,0,0,0,0,0,-3.1765,-3.1768,-3.1799,-3.1799,-3.1799,-3.1817,-3.1816,-3.1845,-3.1815,-3.1809,-3.1813,-3.1811,-3.1833,-3.1835,-3.1843,-3.1878,-3.1879,-3.1849,-3.185,-3.1851,-3.1852,0,0,0,0,0,0,0,-3.1763,-3.1767,-3.1812,-3.1799,-3.1799,-3.1796,-3.1799,-3.1822,-3.1826,-3.1809,-3.1808,-3.1812,-3.1833,-3.1841,-3.1843,-3.1879,-3.1849,-3.1851,-3.1852,-3.1853,-3.1944,-3.1945,0,0,0,0,0,0,-3.1761,-3.1766,-3.1811,-3.1813,-3.1779,-3.1798,-3.1801,-3.1812,-3.1826,-3.1827,-3.1813,-3.1811,-3.1838,-3.1841,-3.1844,-3.1884,-3.1851,-3.1853,-3.1854,-3.1943,-3.1945,-3.1946,0,0,0,0,0,0,-3.176,-3.1765,-3.181,-3.1789,-3.1795,-3.18,-3.1813,-3.1813,-3.1821,-3.1829,-3.1829,-3.182,-3.1837,-3.1841,-3.1869,-3.1885,-3.1854,-3.1856,-3.1942,-3.1944,-3.1945,-3.1966,0,0,0,0,0,0,-3.1758,-3.1765,-3.1778,-3.179,-3.1796,-3.1835,-3.1814,-3.1815,-3.1825,-3.1823,-3.1836,-3.1837,-3.1836,-3.1866,-3.1871,-3.1887,-3.1857,-3.194,-3.1942,-3.1945,-3.1963,-3.1968,-3.1972,0,0,0,0,0,-3.1756,-3.1782,-3.1778,-3.1784,-3.1812,-3.1835,-3.1839,-3.1838,-3.1826,-3.1839,-3.1844,-3.1836,-3.1883,-3.1869,-3.1874,-3.1892,-3.1939,-3.1942,-3.1944,-3.1962,-3.1967,-3.1972,0,0,0,0,0,0,-3.1772,-3.1784,-3.178,-3.1811,-3.1822,-3.1833,-3.1849,-3.1844,-3.1859,-3.1856,-3.1855,-3.1858,-3.1886,-3.1892,-3.1876,-3.1926,-3.1909,-3.1913,-3.192,-3.1926,-3.193,-3.1927,-3.1859,0,0,0,0,0,-3.1779,-3.1797,-3.1807,-3.1834,-3.184,-3.1844,-3.1854,-3.1852,-3.1864,-3.1869,-3.1875,-3.1887,-3.1904,-3.1916,-3.1932,-3.1965,-3.1967,-3.198,-3.1984,-3.1987,-3.199,-3.2008,-3.2013,-3.1955,-3.1955,-3.1955,0,0,-3.1794,-3.1803,-3.1814,-3.1837,-3.1846,-3.1864,-3.1848,-3.1868,-3.1882,-3.1872,-3.1898,-3.1904,-3.1917,-3.1947,-3.1961,-3.1952,-3.2007,-3.1991,-3.1993,-3.1994,-3.2011,-3.2016,-3.2021,-3.1956,-3.1956,-3.1956,0,0,-3.1831,-3.184,-3.1862,-3.1872,-3.1885,-3.1888,-3.1894,-3.1906,-3.1909,-3.1935,-3.1928,-3.1945,-3.1975,-3.1984,-3.1993,-3.2034,-3.2027,-3.204,-3.206,-3.2077,-3.2082,-3.2086,-3.21,-3.2105,-3.2043,-3.2043,-3.2043,0,-3.1847,-3.1875,-3.1875,-3.1896,-3.1906,-3.1898,-3.1921,-3.1931,-3.1949,-3.1956,-3.1947,-3.1984,-3.1993,-3.2025,-3.2035,-3.2043,-3.2049,-3.2037,-3.2081,-3.2085,-3.2089,-3.2102,-3.2107,-3.2044,-3.2044,-3.2044,-3.2044,0,-3.1894,-3.1914,-3.193,-3.1948,-3.196,-3.1982,-3.1986,-3.1998,-3.1996,-3.2,-3.2027,-3.2037,-3.2055,-3.2063,-3.2062,-3.2095,-3.209,-3.2082,-3.2064,-3.2096,-3.2108,-3.2113,-3.2046,-3.2046,-3.2045,-3.2045,0,0,-3.1939,-3.1958,-3.1964,-3.1972,-3.1987,-3.2002,-3.2024,-3.2042,-3.2052,-3.2065,-3.2083,-3.2109,-3.2102,-3.2112,-3.2111,-3.2127,-3.2158,-3.2116,-3.2116,-3.2122,-3.2194,-3.2199,-3.2205,-3.2154,-3.2155,-3.2156,-3.2193,0,-3.1975,-3.2013,-3.2014,-3.2049,-3.2066,-3.2061,-3.208,-3.2091,-3.2096,-3.2112,-3.2117,-3.2135,-3.2124,-3.213,-3.2145,-3.2151,-3.2172,-3.2148,-3.217,-3.2171,-3.2165,-3.2212,-3.2217,-3.2251,-3.2198,-3.2199,-3.2199,0,-3.2022,-3.2037,-3.2073,-3.2086,-3.2093,-3.211,-3.2127,-3.2142,-3.2155,-3.2158,-3.217,-3.2167,-3.219,-3.2174,-3.2204,-3.2188,-3.2198,-3.2202,-3.2203,-3.2204,-3.2185,-3.2212,-3.2262,-3.2267,-3.2207,-3.2206,-3.2206,0,-3.205,-3.2079,-3.2104,-3.2112,-3.2127,-3.2139,-3.2146,-3.2159,-3.2169,-3.2184,-3.2191,-3.2209,-3.2218,-3.2232,-3.2234,-3.2223,-3.2265,-3.2249,-3.2266,-3.2266,-3.2274,-3.2273,-3.2324,-3.2283,-3.2283,-3.2283,-3.2283,0,-3.2089,-3.2111,-3.2117,-3.2132,-3.2157,-3.2159,-3.2183,-3.2189,-3.22,-3.2217,-3.2214,-3.2229,-3.2233,-3.2249,-3.2252,-3.2276,-3.2281,-3.2283,-3.2283,-3.2282,-3.2281,-3.2286,-3.2283,-3.2284,-3.2284,-3.2284,-3.2283,0,-3.2123,-3.2128,-3.2155,-3.2168,-3.2172,-3.2189,-3.22,-3.2215,-3.222,-3.2241,-3.2246,-3.2254,-3.2273,-3.2277,-3.23,-3.2302,-3.2331,-3.2329,-3.2326,-3.2325,-3.2342,-3.2339,-3.2397,-3.2404,-3.2359,-3.236,-3.236,0,-3.2146,-3.2163,-3.2178,-3.2189,-3.2197,-3.2214,-3.2226,-3.2229,-3.224,-3.2257,-3.227,-3.2289,-3.2303,-3.2335,-3.2342,-3.236,-3.2358,-3.2377,-3.236,-3.2359,-3.2356,-3.2354,-3.2356,-3.2379,-3.238,-3.238,-3.238,0,-3.2188,-3.2189,-3.2205,-3.2222,-3.2236,-3.2249,-3.2262,-3.2272,-3.2276,-3.229,-3.2309,-3.2321,-3.2345,-3.2363,-3.2381,-3.2389,-3.2385,-3.2386,-3.2391,-3.2389,-3.2386,-3.2386,-3.2333,-3.2384,-3.2384,-3.2383,-3.2383,-3.2383,-3.2216,-3.2231,-3.2243,-3.2261,-3.2272,-3.2284,-3.2298,-3.2305,-3.2322,-3.2341,-3.2342,-3.2363,-3.2376,-3.24,-3.2409,-3.2425,-3.242,-3.2427,-3.2428,-3.2429,-3.243,-3.2385,-3.2429,-3.2429,-3.2429,-3.2429,-3.2429,0,-3.2256,-3.2264,-3.2281,-3.2299,-3.2313,-3.2309,-3.2324,-3.2336,-3.2354,-3.2367,-3.2382,-3.2405,-3.2423,-3.2433,-3.2451,-3.2462,-3.2461,-3.2467,-3.2465,-3.2467,-3.2435,-3.2428,-3.2468,-3.2468,-3.2468,-3.2468,-3.2467,-3.2467,-3.2278,-3.2302,-3.2305,-3.2335,-3.2343,-3.2363,-3.2372,-3.2383,-3.2393,-3.2418,-3.2434,-3.244,-3.2451,-3.2471,-3.2487,-3.249,-3.2496,-3.2502,-3.2503,-3.2473,-3.2469,-3.2465,-3.2459,-3.2504,-3.2504,-3.2534,-3.2534,-3.2534]},{"header":{"parameterUnit":"m.s-1","parameterCategory":1,"la1":30.2991,"la2":30.254,"lo1":-89.0895,"lo2":-89.0444,"dy":0.0017,"dx":0.0017,"nx":28,"ny":28,"refTime":"2023-04-03T21:00:00:Z","depth":0,"parameterNumber":3,"parameterNumberName":"V-component_of_WINDS"},"data":[0,0,0,0,0,0,0,0,0,0,0,0,0,0,0,0,0,0,0,0,0,0,0,0,0,0,0,0,0,0,0,0,0,0,0,0,0,0,0,0,0,0,0,0,0,0,0,0,0,0,0,0,0,0,0,0,0,0,4.6652,4.6652,0,4.6639,4.6639,4.6639,4.6624,4.6623,4.6623,4.6623,4.6606,4.6606,4.6606,0,0,0,0,0,0,0,0,0,0,0,0,0,4.6665,4.6664,4.6652,4.6652,4.6652,4.6639,4.6639,4.6639,4.6624,4.6623,4.6623,4.6623,4.6606,4.6606,4.6606,0,0,0,0,0,0,0,0,0,0,0,0,0,4.6656,4.6664,4.6652,4.6643,4.6642,4.6639,4.6639,4.6639,4.6624,4.6623,4.6623,4.6623,4.6606,4.6606,4.6606,4.6609,0,0,4.6604,4.6604,0,0,0,0,0,0,0,0,4.6656,4.6655,4.6645,4.6644,4.6643,4.6633,4.6637,4.6629,4.6624,4.6631,4.6623,4.6623,4.6615,4.6614,4.6612,4.6609,4.6608,4.6604,4.6604,4.6604,4.6604,0,0,0,0,0,0,0,4.6657,4.6656,4.6647,4.6645,4.6643,4.664,4.6638,4.6635,4.6625,4.663,4.6629,4.6628,4.6614,4.6612,4.6611,4.6608,4.6604,4.6604,4.6604,4.6604,4.6611,4.6611,0,0,0,0,0,0,4.6659,4.6657,4.6647,4.6647,4.6649,4.664,4.6638,4.6636,4.6625,4.6623,4.6628,4.6627,4.6613,4.6612,4.6611,4.6617,4.6604,4.6604,4.6603,4.6611,4.6611,4.6612,0,0,0,0,0,0,4.666,4.6659,4.6648,4.6651,4.665,4.664,4.6638,4.6636,4.6634,4.6623,4.6621,4.6628,4.6613,4.6611,4.6611,4.6616,4.6603,4.6603,4.661,4.6611,4.6611,4.6628,0,0,0,0,0,0,4.666,4.6659,4.666,4.6652,4.665,4.6648,4.6638,4.6636,4.6634,4.6632,4.6623,4.6621,4.6613,4.6612,4.6611,4.6615,4.6603,4.661,4.661,4.6611,4.6627,4.6629,4.6631,0,0,0,0,0,4.6661,4.6664,4.666,4.6659,4.6651,4.6649,4.6647,4.6639,4.6634,4.6636,4.6629,4.6621,4.6616,4.6612,4.661,4.6615,4.6609,4.661,4.6611,4.6626,4.6629,4.6631,0,0,0,0,0,0,4.667,4.6662,4.6658,4.6659,4.6655,4.6646,4.6647,4.6642,4.6638,4.6637,4.6626,4.6624,4.6625,4.662,4.6615,4.662,4.6612,4.6612,4.6623,4.6626,4.6628,4.6629,4.6602,0,0,0,0,0,4.6673,4.6673,4.6665,4.6666,4.6665,4.6657,4.6655,4.665,4.6645,4.6642,4.6636,4.6631,4.6629,4.6627,4.6624,4.6627,4.6625,4.663,4.6632,4.6633,4.6634,4.6638,4.6641,4.6615,4.6615,4.6615,0,0,4.6677,4.6673,4.6673,4.6668,4.6664,4.6665,4.6655,4.6654,4.6655,4.6642,4.6642,4.6638,4.6631,4.6634,4.6634,4.6629,4.6641,4.6635,4.6636,4.6636,4.6639,4.6642,4.6644,4.6615,4.6615,4.6615,0,0,4.6686,4.6682,4.6684,4.6682,4.6678,4.6673,4.6674,4.6667,4.6664,4.6665,4.6656,4.6656,4.6652,4.6649,4.6647,4.6659,4.6652,4.6659,4.6669,4.6673,4.6675,4.6677,4.6683,4.6685,4.6659,4.6659,4.6659,0,4.6691,4.6692,4.6685,4.6687,4.6686,4.6678,4.668,4.6678,4.6672,4.6672,4.6667,4.6664,4.6659,4.6662,4.6666,4.6664,4.6665,4.6659,4.6676,4.6677,4.6679,4.6685,4.6687,4.666,4.666,4.666,4.666,0,4.67,4.6701,4.6703,4.6701,4.67,4.6702,4.6697,4.6697,4.6693,4.6689,4.6691,4.6686,4.6683,4.6683,4.6677,4.6686,4.6684,4.6678,4.6669,4.6682,4.6688,4.669,4.6662,4.6661,4.6661,4.6661,0,0,4.6711,4.6709,4.671,4.671,4.6707,4.6707,4.671,4.671,4.6711,4.6708,4.6711,4.671,4.6706,4.6703,4.6698,4.6702,4.6715,4.6695,4.6695,4.67,4.6727,4.6732,4.6735,4.6711,4.6711,4.6712,4.6728,0,4.6719,4.6724,4.6721,4.6727,4.6729,4.6723,4.6726,4.6725,4.6722,4.6724,4.672,4.6721,4.6714,4.6713,4.6716,4.6713,4.672,4.6711,4.6714,4.6714,4.6716,4.6737,4.6742,4.6758,4.673,4.673,4.6731,0,4.6728,4.673,4.6737,4.6737,4.6738,4.674,4.6742,4.6743,4.6743,4.6741,4.6741,4.6736,4.6739,4.6732,4.6738,4.6732,4.6733,4.6732,4.6732,4.6732,4.6723,4.6739,4.6762,4.6765,4.6734,4.6733,4.6733,0,4.6738,4.6741,4.6747,4.6747,4.6747,4.675,4.675,4.6749,4.675,4.6752,4.6753,4.6753,4.6754,4.6755,4.6751,4.6746,4.6759,4.6749,4.6758,4.6758,4.676,4.676,4.6785,4.676,4.676,4.676,4.676,0,4.6747,4.6752,4.6751,4.6755,4.6761,4.6758,4.6764,4.6763,4.6764,4.6767,4.6762,4.6765,4.676,4.6763,4.676,4.6767,4.6766,4.6766,4.6765,4.6766,4.6767,4.6767,4.6766,4.6761,4.676,4.676,4.676,0,4.6757,4.6757,4.6763,4.6765,4.6766,4.677,4.6771,4.6775,4.6774,4.6779,4.678,4.6778,4.6782,4.6779,4.6781,4.678,4.6789,4.6786,4.679,4.6789,4.6798,4.6798,4.6824,4.6829,4.6801,4.6801,4.6801,0,4.6763,4.6768,4.6771,4.6775,4.6776,4.678,4.6783,4.6781,4.6784,4.6787,4.679,4.6795,4.6798,4.6805,4.6803,4.6807,4.6804,4.6814,4.6804,4.6807,4.6806,4.6806,4.6808,4.6815,4.6815,4.6816,4.6816,0,4.6775,4.6776,4.678,4.6786,4.679,4.6794,4.6797,4.68,4.6799,4.6802,4.6808,4.6811,4.6816,4.6821,4.6825,4.6825,4.6821,4.6819,4.6822,4.6823,4.6826,4.6826,4.6796,4.6818,4.6818,4.6818,4.6818,4.6818,4.6784,4.6789,4.6793,4.68,4.6803,4.6807,4.6812,4.6814,4.6819,4.6824,4.6823,4.683,4.6833,4.6838,4.6839,4.6845,4.6841,4.6844,4.6845,4.6846,4.6848,4.6825,4.6845,4.6845,4.6845,4.6845,4.6845,0,4.6796,4.68,4.6806,4.6813,4.6819,4.6817,4.6822,4.6826,4.6833,4.6837,4.6842,4.685,4.6856,4.6857,4.6863,4.6867,4.6866,4.6869,4.6869,4.6869,4.685,4.6848,4.687,4.687,4.687,4.687,4.687,4.687,4.6803,4.6813,4.6815,4.6827,4.683,4.6839,4.6842,4.6847,4.685,4.686,4.6866,4.6868,4.6871,4.6878,4.6884,4.6885,4.6887,4.6891,4.6891,4.6873,4.687,4.6868,4.6866,4.6892,4.6892,4.691,4.691,4.691]}]]